[[{"header":{"parameterUnit":"m.s-1","parameterCategory":1,"la1":30.2992,"la2":30.254,"lo1":-89.0895,"lo2":-89.0443,"dy":0.0025,"dx":0.0025,"nx":19,"ny":19,"refTime":"2026-03-26T21:00:00:Z","depth":0,"parameterNumber":2,"parameterNumberName":"U-component_of_WINDS"},"data":[0,0,0,2.1174,2.1174,2.1205,2.1205,2.1259,2.1259,0,0,0,0,0,0,0,0,0,0,0,2.1174,2.1174,2.1173,2.1174,2.1205,2.1205,2.1259,2.1259,0,0,0,0,0,0,0,0,0,0,0,2.1173,2.1174,2.1175,2.1175,2.1205,2.1205,2.1258,2.123,0,0,0,0,0,0,0,0,0,0,2.1198,2.1207,2.1174,2.1175,2.1175,2.1205,2.1205,2.1229,2.1232,2.1252,0,2.1271,0,2.1266,2.1264,2.1264,0,0,0,2.1168,2.1205,2.1204,2.1175,2.1175,2.1205,2.1189,2.123,2.1234,2.1256,2.1272,2.1274,2.1267,2.1264,2.1265,2.1401,2.1402,0,0,2.1166,2.1184,2.1202,2.1207,2.1204,2.1188,2.119,2.1232,2.1251,2.1272,2.1275,2.1268,2.1265,2.1265,2.14,2.1401,0,0,0,2.1166,2.1183,2.1182,2.1206,2.121,2.1189,2.1191,2.1249,2.1247,2.1275,2.1269,2.1265,2.1266,2.1399,2.14,2.1464,0,0,0,2.1164,2.1183,2.1181,2.1193,2.121,2.123,2.1207,2.1244,2.1248,2.1269,2.1265,2.1267,2.1398,2.1399,2.146,2.1491,0,0,0,2.1169,2.1183,2.1191,2.1194,2.1207,2.1229,2.1229,2.1244,2.1245,2.1264,2.1267,2.1397,2.1399,2.1457,2.1485,2.1532,0,0,0,2.1178,2.1248,2.1192,2.1268,2.1207,2.1269,2.1228,2.1273,2.1298,2.1266,2.1398,2.14,2.1455,2.1482,2.1528,2.1573,2.1594,0,0,2.1276,2.126,2.1303,2.1254,2.133,2.1263,2.1348,2.1353,2.1338,2.1381,2.1384,2.1462,2.1485,2.1531,2.1707,2.1723,0,0,0,2.1341,2.1372,2.1388,2.1412,2.1418,2.1425,2.1416,2.1418,2.1453,2.1364,2.1491,2.1504,2.1531,2.1551,2.1565,2.1586,2.1411,2.141,2.141,2.1504,2.1482,2.1551,2.1533,2.1557,2.1547,2.1564,2.1565,2.1536,2.1566,2.1578,2.1688,2.1713,2.1723,2.1745,2.1601,2.1602,2.1602,2.1602,2.1645,2.1684,2.1644,2.1697,2.1674,2.1718,2.1711,2.1689,2.1726,2.1677,2.1699,2.1645,2.1742,2.176,2.1607,2.1606,2.1605,2.1605,2.1605,2.1748,2.1763,2.1765,2.1798,2.1826,2.1805,2.1843,2.1821,2.18,2.1822,2.1831,2.183,2.1825,2.1828,2.1828,2.1829,2.1829,2.1829,2.183,2.1854,2.1854,2.1888,2.1901,2.1914,2.1928,2.1919,2.1931,2.1938,2.1919,2.1919,2.1886,2.1756,2.1723,2.1835,2.1834,2.1834,2.1833,2.1833,2.2002,2.1965,2.2018,2.2031,2.2045,2.2074,2.2045,2.2071,2.2078,2.2098,2.2061,2.1969,2.1951,2.1939,2.1912,2.2066,2.2066,2.2066,2.2066,2.2088,2.2077,2.2127,2.2149,2.2168,2.2147,2.2209,2.2203,2.2191,2.2194,2.2169,2.2131,2.2121,2.2109,2.2094,2.2067,2.2257,2.2258,2.2258,2.2177,2.2167,2.2223,2.2211,2.2221,2.2229,2.2286,2.2312,2.2292,2.2265,2.2195,2.2187,2.2126,2.2108,2.2078,2.2055,2.2006,0,0]},{"header":{"parameterUnit":"m.s-1","parameterCategory":1,"la1":30.2992,"la2":30.254,"lo1":-89.0895,"lo2":-89.0443,"dy":0.0025,"dx":0.0025,"nx":19,"ny":19,"refTime":"2026-03-26T21:00:00:Z","depth":0,"parameterNumber":3,"parameterNumberName":"V-component_of_WINDS"},"data":[0,0,0,0.5933,0.5934,0.5981,0.5981,0.6036,0.6036,0,0,0,0,0,0,0,0,0,0,0,0.5917,0.5917,0.5933,0.5934,0.598,0.5981,0.6036,0.6036,0,0,0,0,0,0,0,0,0,0,0,0.5916,0.5917,0.5917,0.5934,0.598,0.5981,0.6036,0.6002,0,0,0,0,0,0,0,0,0,0,0.5957,0.594,0.5917,0.5917,0.5934,0.598,0.5981,0.6,0.6004,0.6013,0,0.6021,0,0.6029,0.604,0.604,0,0,0,0.5935,0.5937,0.5952,0.5917,0.5935,0.598,0.596,0.6002,0.6007,0.6018,0.6022,0.6024,0.603,0.604,0.604,0.6087,0.6087,0,0,0.5933,0.5924,0.5949,0.5955,0.5948,0.5958,0.5961,0.6005,0.6008,0.6022,0.6025,0.6031,0.604,0.6041,0.6087,0.6087,0,0,0,0.5924,0.5922,0.5936,0.5952,0.5961,0.596,0.5963,0.6007,0.6012,0.6026,0.6032,0.6041,0.6041,0.6087,0.6087,0.6086,0,0,0,0.5923,0.5917,0.5934,0.5929,0.596,0.5984,0.5963,0.6009,0.6014,0.6032,0.6041,0.6042,0.6087,0.6087,0.6086,0.6087,0,0,0,0.5914,0.5916,0.5922,0.5929,0.5949,0.5984,0.5992,0.601,0.6018,0.604,0.6042,0.6087,0.6087,0.6086,0.6087,0.6096,0,0,0,0.5903,0.592,0.5922,0.5944,0.5948,0.5983,0.5992,0.6018,0.6037,0.6041,0.6087,0.6087,0.6085,0.6086,0.6096,0.6103,0.6105,0,0,0.592,0.5922,0.5936,0.5939,0.5971,0.5977,0.6008,0.6034,0.6044,0.6072,0.6074,0.6086,0.6086,0.6096,0.6121,0.6122,0,0,0,0.5938,0.5948,0.5959,0.5976,0.5997,0.6014,0.6036,0.6045,0.6069,0.6057,0.6092,0.6093,0.6099,0.6103,0.6104,0.611,0.6089,0.6089,0.6089,0.595,0.5962,0.5986,0.6003,0.602,0.6042,0.6057,0.6073,0.608,0.6088,0.6097,0.611,0.6114,0.6115,0.6121,0.6102,0.6102,0.6102,0.6102,0.5977,0.5992,0.6001,0.6027,0.6039,0.606,0.6082,0.6086,0.6107,0.6105,0.6111,0.6107,0.6117,0.6122,0.6102,0.6102,0.6102,0.6102,0.6102,0.5986,0.5995,0.6007,0.6033,0.6052,0.6069,0.6089,0.6099,0.6109,0.6115,0.6125,0.6125,0.6126,0.6119,0.6119,0.6119,0.6119,0.6119,0.6119,0.5991,0.6003,0.6019,0.6042,0.6054,0.6072,0.6094,0.6106,0.6123,0.6129,0.6129,0.6134,0.6116,0.6111,0.612,0.612,0.612,0.612,0.612,0.6013,0.6009,0.6034,0.6046,0.6073,0.6091,0.6104,0.6128,0.614,0.6149,0.6154,0.6138,0.6141,0.614,0.6136,0.6152,0.6152,0.6152,0.6152,0.602,0.6023,0.605,0.6069,0.6089,0.6103,0.613,0.6146,0.6163,0.6171,0.617,0.6165,0.6164,0.6168,0.6166,0.6162,0.6184,0.6184,0.6184,0.6034,0.6039,0.606,0.6077,0.6098,0.6116,0.6141,0.6162,0.6181,0.6186,0.6177,0.6176,0.6168,0.6165,0.617,0.6167,0.6161,0,0]}]]